Weather in Cahors

France     44°26′49″N   1°26′29″E
temp.,
°C
wind,
m/s
gust,
m/s
humid.,
%
clouds,
%
prec.,
mm/h
press.,
hPa
HPBL,
m
22 april, thu
thu2223:00+8e269426 0.0 1016144
02:00+6e289641 0.0 1016180
05:00+5e3109433 0.0 1016208
08:00+6e311915 0.0 1017264
11:00+15ese46535 0.0 1017991
14:00+19se35408 0.0 10162036
17:00+20sse353718 0.0 10152294
20:00+15s246422 0.0 101776
23 april, fri
fri2323:00+9se11855 0.0 102010
02:00+8ene22793 0.0 102014
05:00+7ene23820 0.0 102051
08:00+8ene24820 0.0 1020102
11:00+17e23500 0.0 1020554
14:00+21ese24350 0.0 10181769
17:00+22s34331 0.0 10172075
20:00+17s23625 0.0 101735
24 april, sat
sat2423:00+11ese22719 0.0 102012
02:00+9e3667100 0.0 1019106
05:00+8e3669100 0.0 1019120
08:00+9e3107010 0.0 1019215
11:00+19se584015 0.0 10181028
14:00+22sse5733100 0.0 10171707
17:00+22sse453551 0.0 10161545
20:00+17ese4952100 0.0 1016358
25 april, sun
sun2523:00+11ese3966100 0.0 1018200
02:00+10e287078 0.0 1017157
05:00+8ene387392 0.0 1016136
08:00+9e2870100 0.0 1016180
11:00+18ese4642100 0.0 1015675
14:00+21se4535100 0.0 10141171
17:00+22se453698 0.0 10121427
20:00+17ese4853100 0.0 1011461
26 april, mon
mon2623:00+13ese31055100 0.0 1012400
02:00+13e31044100 0.0 1010432
05:00+12ese31044100 0.0 1009460
08:00+11ese31174100 0.4 1009419
11:00+16se5654100 0.1 1008994
14:00+18sse4558100 0.1 10071371
17:00+12ese3692100 0.4 1007383
20:00+11ese2695100 0.8 1007356